This demonstration page uses our WeatherBlox Daily Observations layout. Learn more.

40.92945, -100.16068

Hourly Observations for June 10, 2017

Temp ( °F °C ) Dew Point ( °F °C ) Humidity (%) Winds ( mph kmh ) Pressure ( in mb ) Visibility ( mi km ) Precip ( " mm )
12:15 am 00:15 Clear 76 24.5 63 17.2 64 64 S 18 30 29.53 1000 10 16.0934 0 0
12:35 am 00:35 Clear 76 24.3 63 17.1 64 64 S 20 31 29.53 1000 10 16.0934 0 0
12:55 am 00:55 Clear 75 23.9 63 17.1 66 66 S 18 30 29.53 1000 10 16.0934 0 0
1:15 am 01:15 Clear 75 23.7 63 17 66 66 S 20 31 29.53 1000 10 16.0934 0 0
1:35 am 01:35 Clear 74 23.5 63 17 67 67 S 17 28 29.53 1000 10 16.0934 0 0
1:55 am 01:55 Clear 73 22.9 62 16.9 69 69 S 17 28 29.53 1000 10 16.0934 0 0
2:15 am 02:15 Clear 73 22.6 63 17 71 71 S 15 24 29.53 1000 10 16.0934 0 0
2:35 am 02:35 Clear 72 22.3 63 17 72 72 SSE 14 22 29.53 1000 10 16.0934 0 0
2:55 am 02:55 Clear 72 22 63 17 73 73 S 10 17 29.53 1000 10 16.0934 0 0
3:15 am 03:15 Clear 71 21.8 63 17.1 75 75 S 12 19 29.53 1000 10 16.0934 0 0
3:35 am 03:35 Clear 71 21.4 63 17.1 77 77 SSE 10 17 29.53 1000 10 16.0934 0 0
3:55 am 03:55 Clear 70 21.2 63 17.2 78 78 SSE 13 20 29.53 1000 10 16.0934 0 0
4:15 am 04:15 Clear 70 21.2 63 17.3 79 79 SSE 10 17 29.53 1000 10 16.0934 0 0
4:35 am 04:35 Clear 70 21 63 17.3 80 80 SSE 9 15 29.53 1000 10 16.0934 0 0
4:55 am 04:55 Clear 69 20.7 64 17.5 82 82 SSE 14 22 29.53 1000 10 16.0934 0 0
5:15 am 05:15 Clear 69 20.5 64 17.6 84 84 SSE 14 22 29.5 999 10 16.0934 0 0
5:35 am 05:35 Clear 68 20.1 64 17.5 85 85 SSE 13 20 29.5 999 10 16.0934 0 0
5:55 am 05:55 Clear 68 20 64 17.6 86 86 SSE 17 28 29.5 999 10 16.0934 0 0
6:15 am 06:15 Sunny 68 20 64 17.8 87 87 SSE 16 26 29.5 999 10 16.0934 0 0
6:35 am 06:35 Sunny 68 19.9 64 18 89 89 S 13 20 29.5 999 10 16.0934 0 0
6:55 am 06:55 Partly Cloudy 68 20 65 18.1 89 89 S 15 24 29.5 999 10 16.0934 0 0
7:15 am 07:15 Partly Cloudy 68 20.2 65 18.3 89 89 S 17 28 29.5 999 10 16.0934 0 0
7:35 am 07:35 Partly Cloudy 69 20.6 65 18.4 87 87 S 21 33 29.5 999 10 16.0934 0 0
7:55 am 07:55 Partly Cloudy 70 21.2 65 18.5 85 85 S 15 24 29.5 999 10 16.0934 0 0
8:15 am 08:15 Partly Cloudy 72 22 66 18.9 83 83 S 16 26 29.5 999 10 16.0934 0 0
8:35 am 08:35 Partly Cloudy 73 22.5 66 18.9 80 80 S 10 17 29.53 1000 10 16.0934 0 0
8:55 am 08:55 Mostly Cloudy 74 23.4 67 19.3 78 78 S 16 26 29.5 999 10 16.0934 0 0
9:15 am 09:15 Partly Cloudy 76 24.3 67 19.4 74 74 S 16 26 29.47 998 10 16.0934 0 0
9:35 am 09:35 Sunny 77 25 67 19.5 72 72 SSW 18 30 29.47 998 10 16.0934 0 0
9:55 am 09:55 Sunny 78 25.4 67 19.6 70 70 SW 15 24 29.5 999 10 16.0934 0 0
10:15 am 10:15 Sunny 78 25.7 67 19.6 69 69 SW 10 17 29.5 999 10 16.0934 0 0
10:35 am 10:35 Sunny 79 26.2 67 19.7 68 68 SW 10 17 29.5 999 10 16.0934 0 0
10:55 am 10:55 Sunny 80 26.9 67 19.5 64 64 SSW 10 17 29.47 998 10 16.0934 0 0
11:15 am 11:15 Sunny 82 27.5 67 19.2 61 61 SSW 8 13 29.5 999 10 16.0934 0 0
11:35 am 11:35 Sunny 82 27.7 66 18.7 58 58 S 7 11 29.5 999 10 16.0934 0 0
11:55 am 11:55 Sunny 83 28.3 65 18.6 56 56 S 5 7 29.5 999 10 16.0934 0 0
12:15 pm 12:15 Sunny 84 28.9 65 18.1 52 52 Calm 29.5 999 10 16.0934 0 0
12:35 pm 12:35 Sunny 84 29.1 65 18.5 53 53 ENE 3 6 29.5 999 10 16.0934 0 0
12:55 pm 12:55 Sunny 85 29.6 66 18.7 52 52 Calm 29.5 999 10 16.0934 0 0
1:15 pm 13:15 Sunny 85 29.6 64 17.5 48 48 Calm 29.5 999 10 16.0934 0 0
1:35 pm 13:35 Sunny 86 30 67 19.5 53 53 NE 3 6 29.5 999 10 16.0934 0 0
1:55 pm 13:55 Sunny 87 30.3 66 18.9 50 50 Calm 29.5 999 10 16.0934 0 0
2:15 pm 14:15 Sunny 88 31.1 67 19.4 50 50 Calm 29.47 998 10 16.0934 0 0
2:35 pm 14:35 Sunny 89 31.7 64 18 44 44 Calm 29.47 998 10 16.0934 0 0
2:55 pm 14:55 Sunny 90 32 67 19.2 47 47 Calm 29.44 997 10 16.0934 0 0
3:15 pm 15:15 Sunny 91 32.5 65 18.5 43 43 ESE 5 7 29.44 997 10 16.0934 0 0
3:35 pm 15:35 Sunny 90 32.3 66 18.9 45 45 Calm 29.44 997 10 16.0934 0 0
3:55 pm 15:55 Sunny 92 33.1 66 18.9 43 43 Calm 29.44 997 10 16.0934 0 0
4:15 pm 16:15 Sunny 92 33.5 63 17.4 38 38 SE 5 7 29.44 997 10 16.0934 0 0
4:35 pm 16:35 Sunny 92 33.4 66 18.9 42 42 SE 6 9 29.44 997 10 16.0934 0 0
4:55 pm 16:55 Sunny 92 33.5 67 19.6 44 44 ESE 9 15 29.44 997 10 16.0934 0 0
5:15 pm 17:15 Sunny 93 34 64 17.8 38 38 SE 8 13 29.38 995 10 16.0934 0 0
5:35 pm 17:35 Sunny 93 33.7 64 17.9 39 39 SE 10 17 29.41 996 10 16.0934 0 0
5:55 pm 17:55 Sunny 93 33.9 64 17.7 38 38 SSE 13 20 29.41 996 10 16.0934 0 0
6:15 pm 18:15 Sunny 92 33.6 65 18.4 40 40 ESE 12 19 29.41 996 10 16.0934 0 0
6:35 pm 18:35 Sunny 92 33.6 64 17.8 39 39 SE 10 17 29.38 995 10 16.0934 0 0
6:55 pm 18:55 Partly Cloudy 92 33.5 66 18.9 42 42 SSE 13 20 29.38 995 10 16.0934 0 0
7:15 pm 19:15 Partly Cloudy 92 33.2 67 19.4 44 44 SE 10 17 29.41 996 10 16.0934 0 0
7:35 pm 19:35 Partly Cloudy 91 32.9 68 20.1 47 47 SE 12 19 29.38 995 10 16.0934 0 0
7:55 pm 19:55 Partly Cloudy 91 32.5 68 19.8 47 47 SE 15 24 29.38 995 10 16.0934 0 0
8:15 pm 20:15 Partly Cloudy 89 31.9 68 19.9 49 49 SSE 14 22 29.38 995 10 16.0934 0 0
8:35 pm 20:35 Partly Cloudy 89 31.7 68 19.9 50 50 SE 13 20 29.41 996 10 16.0934 0 0
8:55 pm 20:55 Sunny 88 31.2 68 19.8 51 51 SE 12 19 29.41 996 10 16.0934 0 0
9:15 pm 21:15 Clear 87 30.6 68 19.8 52 52 SE 12 19 29.41 996 10 16.0934 0 0
9:35 pm 21:35 Clear 87 30.4 68 19.8 53 53 SE 13 20 29.41 996 10 16.0934 0 0
9:55 pm 21:55 Clear 86 30 68 19.8 54 54 SE 12 19 29.44 997 10 16.0934 0 0
10:15 pm 22:15 Clear 85 29.5 68 19.8 56 56 SE 13 20 29.44 997 10 16.0934 0 0
10:35 pm 22:35 Clear 84 29 68 20 58 58 SE 16 26 29.44 997 10 16.0934 0 0
10:55 pm 22:55 Clear 84 28.9 68 20.1 59 59 SE 15 24 29.44 997 10 16.0934 0 0
11:15 pm 23:15 Clear 83 28.5 68 20.2 61 61 SE 16 26 29.44 997 10 16.0934 0 0
11:35 pm 23:35 Clear 82 28 69 20.5 64 64 SSE 18 30 29.44 997 10 16.0934 0 0
11:55 pm 23:55 Clear 82 27.5 69 20.5 66 66 SSE 18 30 29.44 997 10 16.0934 0 0

Powered by AerisWeather